#�ϑ�����,���ϕ���,���ϕ���,�ő啗��,�ő啗����������,�ő�u�ԕ���,�ő�u�ԕ�����������
#(�N����),(m/s)   ,(16����),(m/s)   ,(16����)        ,(m/s)       ,(16����)            
2017/1/6 0:01,1.1,2,1.2,3,2.5,1
2017/1/6 0:02,1.2,2,1.2,3,2.7,13
2017/1/6 0:03,1.3,1,1.3,2,2.2,13
2017/1/6 0:04,1.2,16,1.3,2,1.9,12
2017/1/6 0:05,1.2,15,1.2,3,2,9
2017/1/6 0:06,1.1,14,1.2,2,1.3,8
2017/1/6 0:07,1.1,13,1.1,2,1.5,13
2017/1/6 0:08,1,13,1.1,1,1.6,13
2017/1/6 0:09,1,12,1,1,1.6,10
2017/1/6 0:10,1,12,1,1,1.5,13
2017/1/6 0:11,0.9,12,1,1,1,13
2017/1/6 0:12,0.8,12,0.9,1,1.8,12
2017/1/6 0:13,0.7,12,0.8,1,1.3,12
2017/1/6 0:14,0.6,12,0.7,16,0.8,7
2017/1/6 0:15,0.6,12,0.6,14,0.8,9
2017/1/6 0:16,0.6,12,0.6,14,2,13
2017/1/6 0:17,0.8,12,0.8,13,3.6,11
2017/1/6 0:18,1,12,1,13,3.5,12
2017/1/6 0:19,1.1,12,1.1,12,2.6,11
2017/1/6 0:20,1.1,12,1.1,12,1.5,12
2017/1/6 0:21,1.1,13,1.1,12,1.8,14
2017/1/6 0:22,1.2,13,1.2,12,3.1,16
2017/1/6 0:23,1.5,13,1.5,13,4.4,2
2017/1/6 0:24,1.8,14,1.8,14,4.9,16
2017/1/6 0:25,2,14,2,14,3.8,3
2017/1/6 0:26,2,15,2.1,15,3.5,3
2017/1/6 0:27,1.8,16,2,15,1.6,13
2017/1/6 0:28,1.7,16,1.8,15,2.2,1
2017/1/6 0:29,1.6,1,1.6,15,2.2,4
2017/1/6 0:30,1.7,2,1.7,15,4.1,4
2017/1/6 0:31,2,2,2,15,7.1,3
2017/1/6 0:32,2.1,2,2.1,15,5.1,2
2017/1/6 0:33,1.9,3,2.1,15,4.3,1
2017/1/6 0:34,1.7,3,1.9,15,2.2,2
2017/1/6 0:35,1.6,2,1.7,15,2,2
2017/1/6 0:36,1.6,2,1.6,2,1.8,1
2017/1/6 0:37,1.6,2,1.6,2,1.6,13
2017/1/6 0:38,1.7,1,1.7,2,2,13
2017/1/6 0:39,1.7,1,1.7,2,1.4,12
2017/1/6 0:40,1.5,16,1.6,2,1.6,13
2017/1/6 0:41,1.2,15,1.5,2,0.9,12
2017/1/6 0:42,1.1,15,1.2,2,1.5,13
2017/1/6 0:43,1,15,1.1,3,2,15
2017/1/6 0:44,0.9,15,1,2,0.5,16
2017/1/6 0:45,0.8,14,0.9,2,0.5,2
2017/1/6 0:46,0.7,14,0.8,2,0.4,12
2017/1/6 0:47,0.6,14,0.7,2,0.3,10
2017/1/6 0:48,0.5,14,0.6,1,1.8,3
2017/1/6 0:49,0.5,15,0.5,16,1.6,5
2017/1/6 0:50,0.5,16,0.5,16,1.4,6
2017/1/6 0:51,0.5,16,0.5,15,0.9,9
2017/1/6 0:52,0.5,13,0.5,15,0.8,10
2017/1/6 0:53,0.5,10,0.5,15,1.1,10
2017/1/6 0:54,0.6,10,0.6,15,2.6,9
2017/1/6 0:55,0.7,9,0.7,14,1.9,7
2017/1/6 0:56,0.9,9,0.9,9,2.6,8
2017/1/6 0:57,0.9,8,0.9,9,1.6,8
2017/1/6 0:58,1,9,1,8,2.1,8
2017/1/6 0:59,1,9,1,8,2.1,9
2017/1/6 1:00,1,9,1,8,2.1,9
2017/1/6 1:01,1,9,1,8,2,10
2017/1/6 1:02,1.1,9,1.1,9,2,1
2017/1/6 1:03,1.1,9,1.1,9,1.9,16
2017/1/6 1:04,1,8,1.1,9,0.6,1
2017/1/6 1:05,1,11,1,9,1.5,14
2017/1/6 1:06,1,15,1,9,2.2,4
2017/1/6 1:07,1,1,1,9,3,6
2017/1/6 1:08,1.2,1,1.2,1,5.2,7
2017/1/6 1:09,1.3,1,1.3,1,4.1,5
2017/1/6 1:10,1.7,1,1.7,1,7.9,3
2017/1/6 1:11,1.9,1,1.9,1,7.6,1
2017/1/6 1:12,2,1,2,1,4.4,9
2017/1/6 1:13,2.1,1,2.1,1,4.1,11
2017/1/6 1:14,2.2,1,2.2,16,2,13
2017/1/6 1:15,2.3,3,2.3,2,3.8,4
2017/1/6 1:16,2.3,4,2.3,2,3.1,4
2017/1/6 1:17,2.3,5,2.3,2,3.3,5
2017/1/6 1:18,2.2,5,2.3,2,3.1,7
2017/1/6 1:19,2.3,4,2.3,2,3.7,5
2017/1/6 1:20,2,5,2.2,2,2.7,3
2017/1/6 1:21,1.9,5,1.9,2,3.2,2
2017/1/6 1:22,1.9,4,1.9,2,3.6,2
2017/1/6 1:23,1.9,4,1.9,2,3.8,3
2017/1/6 1:24,2.1,4,2.1,2,4.9,4
2017/1/6 1:25,2.2,4,2.2,3,5.5,3
2017/1/6 1:26,2.2,4,2.2,4,2.6,3
2017/1/6 1:27,2.3,4,2.3,5,4.7,5
2017/1/6 1:28,2.3,4,2.3,4,4.8,5
2017/1/6 1:29,2.5,4,2.5,4,7.7,4
2017/1/6 1:30,2.9,4,2.9,4,9,4
2017/1/6 1:31,3.1,4,3.1,4,6.2,3
2017/1/6 1:32,3.1,4,3.1,4,3.7,4
2017/1/6 1:33,3,4,3.1,4,3.5,3
2017/1/6 1:34,2.9,4,3,4,3.9,3
2017/1/6 1:35,2.6,4,2.8,4,2.5,2
2017/1/6 1:36,2.6,4,2.6,4,1.6,6
2017/1/6 1:37,2.5,4,2.6,4,2.5,4
2017/1/6 1:38,2.5,4,2.5,4,2.9,4
2017/1/6 1:39,2.3,3,2.4,4,3.1,4
2017/1/6 1:40,1.8,4,2.2,4,3,11
2017/1/6 1:41,1.7,3,1.8,4,5.6,15
2017/1/6 1:42,1.6,3,1.7,4,5.5,16
2017/1/6 1:43,1.6,3,1.6,4,1.8,2
2017/1/6 1:44,1.4,2,1.6,4,0.5,13
2017/1/6 1:45,1.5,3,1.5,4,3.7,3
2017/1/6 1:46,1.7,3,1.7,4,5,3
2017/1/6 1:47,1.7,3,1.8,4,3.5,3
2017/1/6 1:48,1.6,3,1.7,3,3,6
2017/1/6 1:49,1.5,3,1.6,4,2.5,6
2017/1/6 1:50,1.6,2,1.6,4,4.3,14
2017/1/6 1:51,1.6,2,1.7,3,3.7,13
2017/1/6 1:52,1.4,3,1.5,3,0.8,12
2017/1/6 1:53,1.4,3,1.4,3,1,3
2017/1/6 1:54,1.4,3,1.4,3,0.8,3
2017/1/6 1:55,1.2,3,1.4,3,0.5,7
2017/1/6 1:56,1,5,1.2,3,0.6,8
2017/1/6 1:57,0.9,7,0.9,3,1.1,7
2017/1/6 1:58,0.8,7,0.9,2,1.1,5
2017/1/6 1:59,0.9,6,0.9,2,2,5
2017/1/6 2:00,0.8,6,0.9,2,2.2,7
2017/1/6 2:01,0.8,6,0.8,2,2.1,6
2017/1/6 2:02,0.8,6,0.8,3,1.9,9
2017/1/6 2:03,0.8,7,0.9,4,2.2,8
2017/1/6 2:04,0.9,7,0.9,3,1.8,1
2017/1/6 2:05,0.9,7,0.9,3,0.9,16
2017/1/6 2:06,1,6,1,7,2.6,4
2017/1/6 2:07,1,6,1,7,1.3,8
2017/1/6 2:08,1,6,1,7,2.5,5
2017/1/6 2:09,1,6,1,7,3,4
2017/1/6 2:10,1.1,5,1.1,5,3.9,3
2017/1/6 2:11,1.2,4,1.2,4,3.2,4
2017/1/6 2:12,1.2,4,1.2,4,2.5,5
2017/1/6 2:13,1.2,3,1.2,4,1.3,16
2017/1/6 2:14,1.2,3,1.2,4,1.6,15
2017/1/6 2:15,1.3,3,1.3,3,1.5,12
2017/1/6 2:16,1.2,3,1.3,3,1.6,9
2017/1/6 2:17,1.3,3,1.3,3,3.2,10
2017/1/6 2:18,1.4,4,1.4,4,3.7,9
2017/1/6 2:19,1.5,5,1.5,5,5.8,8
2017/1/6 2:20,1.2,7,1.5,5,1,15
2017/1/6 2:21,1.1,7,1.2,5,1.9,4
2017/1/6 2:22,1,9,1.1,5,2,8
2017/1/6 2:23,1.1,8,1.1,5,2.5,8
2017/1/6 2:24,1.1,8,1.1,5,1.9,4
2017/1/6 2:25,1,7,1.1,5,0.9,9
2017/1/6 2:26,1.1,7,1.1,5,2,10
2017/1/6 2:27,1.2,7,1.2,5,3.3,8
2017/1/6 2:28,1.2,7,1.2,5,3.9,9
2017/1/6 2:29,1.1,7,1.2,5,2.6,8
2017/1/6 2:30,1.1,8,1.1,7,2.1,8
2017/1/6 2:31,1.1,8,1.1,7,2,8
2017/1/6 2:32,1.2,8,1.2,7,5.2,10
2017/1/6 2:33,1.3,9,1.3,8,4.7,11
2017/1/6 2:34,1.4,9,1.4,9,2.9,10
2017/1/6 2:35,1.4,9,1.4,9,2.2,9
2017/1/6 2:36,1.4,9,1.5,9,2.1,8
2017/1/6 2:37,1.4,9,1.4,9,2.9,8
2017/1/6 2:38,1.3,9,1.4,9,2.6,8
2017/1/6 2:39,1.2,9,1.3,9,1.1,9
2017/1/6 2:40,1.2,9,1.2,9,2.5,8
2017/1/6 2:41,1.3,9,1.3,9,1.9,8
2017/1/6 2:42,1.2,8,1.3,9,1.5,4
2017/1/6 2:43,1.1,7,1.1,9,1.8,6
2017/1/6 2:44,1.1,7,1.1,9,2.7,6
2017/1/6 2:45,1.1,7,1.1,9,1.1,7
2017/1/6 2:46,1.2,7,1.2,9,2.7,7
2017/1/6 2:47,1.3,7,1.3,9,3.2,9
2017/1/6 2:48,1.3,7,1.3,9,2.9,10
2017/1/6 2:49,1.4,7,1.4,7,2.9,10
2017/1/6 2:50,1.4,7,1.4,7,2.6,8
2017/1/6 2:51,1.4,8,1.4,7,4.4,10
2017/1/6 2:52,1.4,8,1.4,7,3.2,9
2017/1/6 2:53,1.4,8,1.4,7,1.8,9
2017/1/6 2:54,1.3,9,1.4,7,3.6,8
2017/1/6 2:55,1.4,9,1.4,7,3.5,9
2017/1/6 2:56,1.4,9,1.4,7,1.9,7
2017/1/6 2:57,1.3,9,1.3,7,2.4,9
2017/1/6 2:58,1.2,10,1.3,7,1.4,13
2017/1/6 2:59,1.2,10,1.2,7,2,11
2017/1/6 3:00,1.2,10,1.2,7,2.5,15
2017/1/6 3:01,1.2,10,1.2,8,1.9,16
2017/1/6 3:02,1.2,10,1.2,8,2,3
2017/1/6 3:03,1.3,9,1.3,8,3.2,7
2017/1/6 3:04,1.4,8,1.4,9,4.9,1
2017/1/6 3:05,1.6,4,1.6,4,5.8,3
2017/1/6 3:06,2,2,2,2,8.5,3
2017/1/6 3:07,2,2,2.1,2,3.9,2
2017/1/6 3:08,2.1,2,2.1,2,3.5,14
2017/1/6 3:09,2.1,2,2.1,2,2.2,16
2017/1/6 3:10,2,2,2.1,2,0.6,12
2017/1/6 3:11,2,2,2,2,1.3,12
2017/1/6 3:12,1.8,16,1.9,2,0.8,14
2017/1/6 3:13,1.8,1,1.8,2,1.1,4
2017/1/6 3:14,1.6,16,1.8,2,2,14
2017/1/6 3:15,1.4,15,1.6,2,3.3,15
2017/1/6 3:16,1.1,15,1.4,2,4.4,15
2017/1/6 3:17,1.1,15,1.1,2,3.1,15
2017/1/6 3:18,1.2,14,1.2,2,2.5,14
2017/1/6 3:19,1.2,14,1.2,2,3.2,15
2017/1/6 3:20,1.5,14,1.5,2,4.1,12
2017/1/6 3:21,1.6,14,1.6,2,3,13
2017/1/6 3:22,1.8,14,1.8,16,3.3,14
2017/1/6 3:23,2.1,14,2.1,14,4.2,15
2017/1/6 3:24,2.3,14,2.3,14,4.9,15
2017/1/6 3:25,2.3,14,2.4,14,3.6,16
2017/1/6 3:26,2.2,14,2.2,14,3.1,15
2017/1/6 3:27,2.1,14,2.2,14,2.5,1
2017/1/6 3:28,2.3,14,2.3,14,6.4,16
2017/1/6 3:29,2.4,14,2.4,14,7.8,14
2017/1/6 3:30,2.5,15,2.5,14,8.1,14
2017/1/6 3:31,2.5,15,2.5,14,4.4,14
2017/1/6 3:32,2.4,15,2.5,14,2.6,2
2017/1/6 3:33,2.3,15,2.3,14,7.2,15
2017/1/6 3:34,2.3,15,2.4,14,6.2,15
2017/1/6 3:35,2.4,16,2.4,14,4.4,16
2017/1/6 3:36,2.4,16,2.4,14,4.7,15
2017/1/6 3:37,2.4,15,2.5,14,5.2,14
2017/1/6 3:38,2.2,16,2.4,14,1.6,1
2017/1/6 3:39,2,16,2.2,14,2.1,3
2017/1/6 3:40,1.8,1,2,15,3.1,3
2017/1/6 3:41,1.7,1,1.8,15,1.9,1
2017/1/6 3:42,1.8,16,1.8,16,2.7,16
2017/1/6 3:43,1.6,16,1.8,16,3,16
2017/1/6 3:44,1.3,16,1.6,16,0.5,10
2017/1/6 3:45,1.1,16,1.3,16,0.8,11
2017/1/6 3:46,1,16,1.1,16,0.9,12
2017/1/6 3:47,1,15,1,15,2.2,12
2017/1/6 3:48,1.1,14,1.1,16,3,12
2017/1/6 3:49,1.2,14,1.2,16,2.2,12
2017/1/6 3:50,1.2,13,1.2,1,4.1,14
2017/1/6 3:51,1.5,13,1.5,1,10.5,14
2017/1/6 3:52,1.6,13,1.6,16,4.5,12
2017/1/6 3:53,2.1,13,2.1,13,9,16
2017/1/6 3:54,2.4,13,2.4,13,6,16
2017/1/6 3:55,2.6,14,2.6,14,3.5,2
2017/1/6 3:56,2.6,14,2.7,14,1.6,3
2017/1/6 3:57,2.6,15,2.6,14,1.1,15
2017/1/6 3:58,2.4,16,2.5,14,0.8,4
2017/1/6 3:59,2.3,16,2.4,14,1.1,12
2017/1/6 4:00,2.1,16,2.3,14,0.5,13
2017/1/6 4:01,1.8,1,2.1,14,2.6,3
2017/1/6 4:02,1.6,2,1.8,14,2.2,3
2017/1/6 4:03,1.3,2,1.6,14,3.8,7
2017/1/6 4:04,1,3,1.2,14,3.7,7
2017/1/6 4:05,0.8,3,1,14,1.8,8
2017/1/6 4:06,0.8,3,0.8,15,0.8,16
2017/1/6 4:07,0.8,4,0.8,15,2,9
2017/1/6 4:08,0.8,5,0.8,16,1.6,3
2017/1/6 4:09,0.9,4,0.9,16,2.2,3
2017/1/6 4:10,0.9,4,0.9,16,1.4,14
2017/1/6 4:11,0.9,5,1,1,2.7,6
2017/1/6 4:12,0.9,6,0.9,2,2.6,9
2017/1/6 4:13,0.7,5,0.9,2,3.8,11
2017/1/6 4:14,0.9,1,0.9,3,5.4,13
2017/1/6 4:15,1.1,1,1.1,16,4.1,15
2017/1/6 4:16,1.3,16,1.3,16,3.9,15
2017/1/6 4:17,1.5,15,1.5,16,4.5,16
2017/1/6 4:18,1.8,15,1.8,15,4.8,12
2017/1/6 4:19,2,14,2,14,5.4,16
2017/1/6 4:20,2.5,14,2.5,14,8.2,16
2017/1/6 4:21,2.6,15,2.6,14,4.7,1
2017/1/6 4:22,2.8,15,2.8,15,5.6,16
2017/1/6 4:23,3.1,15,3.1,15,5.7,16
2017/1/6 4:24,3.1,15,3.1,15,4.3,16
2017/1/6 4:25,3,15,3.1,15,3.2,16
2017/1/6 4:26,2.9,16,3,15,2.5,15
2017/1/6 4:27,2.9,16,2.9,15,3.5,16
2017/1/6 4:28,2.7,16,2.9,15,1.9,2
2017/1/6 4:29,2.6,1,2.7,15,2.2,2
2017/1/6 4:30,2.1,1,2.6,15,2.1,3
2017/1/6 4:31,1.9,1,2.1,15,1.4,16
2017/1/6 4:32,1.7,1,1.8,15,1.3,7
2017/1/6 4:33,1.4,2,1.7,15,1.5,4
2017/1/6 4:34,1.2,2,1.4,15,1.4,3
2017/1/6 4:35,1.1,2,1.2,15,0.9,11
2017/1/6 4:36,1,2,1.1,16,2,9
2017/1/6 4:37,1,3,1,16,2.6,10
2017/1/6 4:38,1,2,1,16,1.5,12
2017/1/6 4:39,1,1,1,1,2.2,12
2017/1/6 4:40,0.9,14,1,1,0.9,13
2017/1/6 4:41,0.9,12,0.9,1,1,12
2017/1/6 4:42,1,12,1,1,2,10
2017/1/6 4:43,1,12,1,2,1.9,11
2017/1/6 4:44,1.1,12,1.1,2,1.8,14
2017/1/6 4:45,1.2,12,1.2,12,2.1,13
2017/1/6 4:46,1.2,12,1.2,12,1.8,14
2017/1/6 4:47,1,13,1.2,12,0.9,16
2017/1/6 4:48,1.1,12,1.1,12,2.4,9
2017/1/6 4:49,1,12,1.1,12,2.2,9
2017/1/6 4:50,1,12,1,12,0.6,6
2017/1/6 4:51,1,12,1,12,0,2
2017/1/6 4:52,0.9,12,0.9,12,2.7,3
2017/1/6 4:53,1,13,1,12,3.5,3
2017/1/6 4:54,1.1,2,1.1,12,2.9,2
2017/1/6 4:55,1,5,1.1,12,1.6,6
2017/1/6 4:56,0.9,6,1,12,1.3,9
2017/1/6 4:57,1,7,1,13,1.6,12
2017/1/6 4:58,1,7,1,12,1.8,12
2017/1/6 4:59,1.2,7,1.2,7,4.3,10
2017/1/6 5:00,1.3,9,1.3,8,4.9,10
2017/1/6 5:01,1.4,11,1.4,9,2.5,10
2017/1/6 5:02,1.5,12,1.5,12,4.5,16
2017/1/6 5:03,1.4,11,1.5,12,2.6,16
2017/1/6 5:04,1.2,11,1.4,12,2.4,6
2017/1/6 5:05,1.4,12,1.4,12,3.7,15
2017/1/6 5:06,1.5,13,1.5,12,3.7,2
2017/1/6 5:07,1.7,14,1.7,14,4.8,2
2017/1/6 5:08,2.1,15,2.1,15,8.2,16
2017/1/6 5:09,2.2,16,2.2,15,6.4,16
2017/1/6 5:10,2.3,16,2.3,16,5.6,1
2017/1/6 5:11,2.5,16,2.5,16,4.2,1
2017/1/6 5:12,2.6,1,2.6,1,5.2,3
2017/1/6 5:13,2.8,1,2.8,1,5.2,3
2017/1/6 5:14,3,1,3,1,5.1,16
2017/1/6 5:15,3,1,3,1,4.2,15
2017/1/6 5:16,3.1,1,3.1,1,7.4,16
2017/1/6 5:17,3.2,1,3.2,1,5.8,16
2017/1/6 5:18,2.9,1,3.1,1,4.2,2
2017/1/6 5:19,2.6,1,2.9,1,3.5,3
2017/1/6 5:20,2.5,1,2.7,1,2.1,6
2017/1/6 5:21,2.3,1,2.4,1,1.5,16
2017/1/6 5:22,2.2,1,2.3,1,5.2,9
2017/1/6 5:23,2.1,1,2.2,1,3.1,2
2017/1/6 5:24,2.1,1,2.1,1,5.7,16
2017/1/6 5:25,2.3,1,2.3,1,10.7,1
2017/1/6 5:26,2.4,2,2.4,1,6.5,2
2017/1/6 5:27,2.2,2,2.4,16,3.5,16
2017/1/6 5:28,2.1,2,2.2,1,3.2,4
2017/1/6 5:29,2.2,2,2.2,1,3.5,16
2017/1/6 5:30,2.3,1,2.3,1,3.1,15
2017/1/6 5:31,2.2,1,2.3,2,1.6,16
2017/1/6 5:32,2,1,2.2,2,0.6,14
2017/1/6 5:33,1.9,1,2,2,0.9,16
2017/1/6 5:34,1.7,1,1.9,2,1.4,2
2017/1/6 5:35,1.4,1,1.6,2,3,3
2017/1/6 5:36,1.3,1,1.4,2,2.9,3
2017/1/6 5:37,1.3,1,1.3,1,3.5,1
2017/1/6 5:38,1.3,1,1.3,1,3.1,1
2017/1/6 5:39,1.3,1,1.3,1,4.9,3
2017/1/6 5:40,1.2,1,1.3,1,3.2,15
2017/1/6 5:41,1.3,1,1.3,1,4.1,5
2017/1/6 5:42,1.6,2,1.6,1,3.9,3
2017/1/6 5:43,1.7,2,1.7,1,3.3,16
2017/1/6 5:44,1.8,1,1.8,1,3.3,14
2017/1/6 5:45,1.8,1,1.8,1,3.2,14
2017/1/6 5:46,1.8,1,1.8,1,2.6,14
2017/1/6 5:47,1.8,16,1.8,1,3,14
2017/1/6 5:48,1.9,15,1.9,16,3.9,10
2017/1/6 5:49,1.7,15,1.9,16,2.1,10
2017/1/6 5:50,1.7,15,1.7,16,1.1,10
2017/1/6 5:51,1.6,15,1.6,16,1.1,15
2017/1/6 5:52,1.4,14,1.5,16,1.9,16
2017/1/6 5:53,1.4,14,1.4,16,3.9,1
2017/1/6 5:54,1.7,14,1.7,16,6.8,16
2017/1/6 5:55,1.6,14,1.6,16,5.1,16
2017/1/6 5:56,1.7,14,1.7,16,7.2,3
2017/1/6 5:57,2,15,2,15,7.7,4
2017/1/6 5:58,2,16,2.1,16,4.3,6
2017/1/6 5:59,2,1,2,16,2.2,10
2017/1/6 6:00,2,1,2,16,1.3,16
2017/1/6 6:01,2,2,2,16,1.5,16
2017/1/6 6:02,2.1,2,2.1,16,4.7,1
2017/1/6 6:03,2.2,3,2.2,3,4.8,2
2017/1/6 6:04,2,3,2.1,3,3.3,1
2017/1/6 6:05,2,3,2.1,3,2.2,16
2017/1/6 6:06,1.9,2,2,3,1.3,1
2017/1/6 6:07,1.4,1,1.8,3,0.6,14
2017/1/6 6:08,1.2,16,1.4,3,1.9,14
2017/1/6 6:09,1.1,16,1.1,3,0.8,6
2017/1/6 6:10,1.1,16,1.2,3,0.9,4
2017/1/6 6:11,1.1,16,1.2,3,1.3,4
2017/1/6 6:12,1.1,16,1.2,3,1.9,9
2017/1/6 6:13,0.8,15,1,3,2,9
2017/1/6 6:14,0.7,13,0.8,3,1.9,10
2017/1/6 6:15,0.6,11,0.7,3,0.8,9
2017/1/6 6:16,0.7,10,0.7,2,1.5,10
2017/1/6 6:17,0.8,10,0.8,1,2.9,10
2017/1/6 6:18,0.7,9,0.8,16,0.9,4
2017/1/6 6:19,0.8,8,0.8,16,1.3,8
2017/1/6 6:20,0.9,9,0.9,16,2,8
2017/1/6 6:21,1,9,1,16,3.5,9
2017/1/6 6:22,1.2,9,1.2,9,4.2,9
2017/1/6 6:23,1.3,9,1.3,9,5.2,9
2017/1/6 6:24,1.5,9,1.5,9,4.4,4
2017/1/6 6:25,1.7,8,1.7,8,4.5,2
2017/1/6 6:26,1.8,7,1.8,8,3,6
2017/1/6 6:27,1.8,7,1.8,8,2.1,4
2017/1/6 6:28,1.8,7,1.8,8,1.1,10
2017/1/6 6:29,1.9,8,1.9,8,1.8,11
2017/1/6 6:30,2,8,2,8,4.1,15
2017/1/6 6:31,1.8,9,2,8,1.6,15
2017/1/6 6:32,1.8,14,1.8,8,3.5,14
2017/1/6 6:33,1.7,14,1.8,8,3.1,14
2017/1/6 6:34,1.7,14,1.7,8,2.7,14
2017/1/6 6:35,1.5,14,1.7,8,2,16
2017/1/6 6:36,1.3,14,1.5,8,0.5,16
2017/1/6 6:37,1.2,13,1.3,8,0.9,11
2017/1/6 6:38,1.2,14,1.2,8,0.5,10
2017/1/6 6:39,1.2,14,1.2,8,1.5,13
2017/1/6 6:40,1.2,13,1.2,8,2.4,11
2017/1/6 6:41,1.2,13,1.2,9,2.2,12
2017/1/6 6:42,1.2,13,1.2,14,2.5,1
2017/1/6 6:43,1.1,14,1.2,14,1.9,3
2017/1/6 6:44,1,14,1.1,14,1.9,16
2017/1/6 6:45,1,14,1,14,2.2,1
2017/1/6 6:46,1,15,1,14,0.5,2
2017/1/6 6:47,1,16,1,13,0.9,15
2017/1/6 6:48,1.1,16,1.1,14,2.5,16
2017/1/6 6:49,1.1,16,1.1,13,2,16
2017/1/6 6:50,1,1,1.1,13,1.1,16
2017/1/6 6:51,0.9,1,1,13,1.1,1
2017/1/6 6:52,0.8,1,0.9,13,1.1,1
2017/1/6 6:53,0.8,1,0.8,14,2.9,1
2017/1/6 6:54,0.9,1,0.9,16,3,3
2017/1/6 6:55,0.8,1,0.8,16,1.9,15
2017/1/6 6:56,1,16,1,16,3,14
2017/1/6 6:57,1.2,16,1.2,16,3.7,16
2017/1/6 6:58,1.3,16,1.3,16,3.5,16
2017/1/6 6:59,1.4,16,1.4,16,3.1,13
2017/1/6 7:00,1.4,16,1.4,16,1.4,14
2017/1/6 7:01,1.3,16,1.4,16,0.8,3
2017/1/6 7:02,1.3,16,1.4,16,1.1,2
2017/1/6 7:03,1.3,16,1.3,16,0.6,4
2017/1/6 7:04,1.2,16,1.3,16,0.9,4
2017/1/6 7:05,1.1,16,1.2,16,0.1,2
2017/1/6 7:06,0.9,1,1.1,16,0,1
2017/1/6 7:07,0.7,1,0.9,16,0.4,3
2017/1/6 7:08,0.5,2,0.7,16,0.1,4
2017/1/6 7:09,0.3,2,0.5,16,0.5,16
2017/1/6 7:10,0.3,2,0.3,16,2.4,6
2017/1/6 7:11,0.4,2,0.4,16,1.6,6
2017/1/6 7:12,0.3,3,0.4,16,1.5,10
2017/1/6 7:13,0.4,3,0.4,16,1.5,10
2017/1/6 7:14,0.5,2,0.5,16,1.6,11
2017/1/6 7:15,0.6,3,0.6,16,1.3,10
2017/1/6 7:16,0.6,8,0.6,1,1.5,10
2017/1/6 7:17,0.8,9,0.8,9,1.8,10
2017/1/6 7:18,0.9,10,0.9,10,1.8,11
2017/1/6 7:19,1,10,1,10,2,11
2017/1/6 7:20,0.9,10,1,10,1,10
2017/1/6 7:21,0.9,10,0.9,10,1,10
2017/1/6 7:22,0.9,10,0.9,10,0.9,9
2017/1/6 7:23,0.9,10,0.9,10,1.3,9
2017/1/6 7:24,0.8,10,0.9,10,1,8
2017/1/6 7:25,0.9,10,0.9,10,1.6,9
2017/1/6 7:26,0.9,10,0.9,10,1.5,8
2017/1/6 7:27,0.8,10,0.8,10,1.9,9
2017/1/6 7:28,0.9,10,0.9,10,2.2,10
2017/1/6 7:29,1,10,1,10,2.5,9
2017/1/6 7:30,1,10,1.1,10,2.2,9
2017/1/6 7:31,1.1,10,1.1,10,1.6,9
2017/1/6 7:32,1,10,1.1,10,1.1,10
2017/1/6 7:33,1.1,10,1.1,10,4.5,3
2017/1/6 7:34,1.3,10,1.3,10,4.5,2
2017/1/6 7:35,1.4,9,1.4,10,4.7,2
2017/1/6 7:36,1.5,9,1.5,9,3.1,6
2017/1/6 7:37,1.5,8,1.5,9,2.1,8
2017/1/6 7:38,1.5,8,1.5,9,1.8,8
2017/1/6 7:39,1.4,7,1.4,9,2.1,7
2017/1/6 7:40,1.3,7,1.4,9,1.4,8
2017/1/6 7:41,1.3,7,1.3,9,1.6,8
2017/1/6 7:42,1.4,8,1.4,9,2,10
2017/1/6 7:43,1.5,8,1.5,9,3.2,11
2017/1/6 7:44,1.4,9,1.5,9,2.5,10
2017/1/6 7:45,1.3,9,1.4,9,2.1,12
2017/1/6 7:46,1.4,10,1.4,9,4.9,14
2017/1/6 7:47,1.5,10,1.5,8,4.7,15
2017/1/6 7:48,1.5,11,1.5,8,3.1,15
2017/1/6 7:49,1.5,12,1.5,8,2.4,13
2017/1/6 7:50,1.6,12,1.6,12,2.5,13
2017/1/6 7:51,1.7,12,1.7,12,2,13
2017/1/6 7:52,1.5,12,1.7,12,1.3,9
2017/1/6 7:53,1.4,13,1.5,12,1.4,9
2017/1/6 7:54,1.3,14,1.3,12,1.9,3
2017/1/6 7:55,1.3,14,1.3,12,1.9,14
2017/1/6 7:56,1.1,15,1.3,12,1.4,16
2017/1/6 7:57,1,15,1.1,12,2.4,4
2017/1/6 7:58,1,15,1,12,3.7,1
2017/1/6 7:59,1,16,1,12,4.5,16
2017/1/6 8:00,1.3,16,1.3,12,6.1,16
2017/1/6 8:01,1.4,1,1.4,12,4.4,1
2017/1/6 8:02,1.5,1,1.5,12,2.7,3
2017/1/6 8:03,1.6,1,1.6,1,3.2,16
2017/1/6 8:04,1.8,1,1.8,1,4.2,16
2017/1/6 8:05,1.9,1,1.9,1,3.9,15
2017/1/6 8:06,2.1,1,2.1,1,5.7,16
2017/1/6 8:07,2.1,16,2.2,1,3.7,15
2017/1/6 8:08,2.2,1,2.2,1,3.9,3
2017/1/6 8:09,2.3,1,2.3,1,3.8,1
2017/1/6 8:10,2.1,1,2.3,1,3.8,2
2017/1/6 8:11,2.1,1,2.1,1,3.1,14
2017/1/6 8:12,2.1,1,2.1,1,3,1
2017/1/6 8:13,1.9,16,2.1,1,1.4,16
2017/1/6 8:14,1.7,16,1.9,1,0.9,16
2017/1/6 8:15,1.6,16,1.7,1,0.8,12
2017/1/6 8:16,1.3,16,1.6,1,0.5,13
2017/1/6 8:17,1.1,16,1.3,1,0.3,14
2017/1/6 8:18,1,16,1.1,1,0.3,4
2017/1/6 8:19,0.7,1,0.9,1,0.8,4
2017/1/6 8:20,0.5,1,0.7,1,1.1,3
2017/1/6 8:21,0.4,1,0.5,1,0.6,16
2017/1/6 8:22,0.3,16,0.4,1,1.1,15
2017/1/6 8:23,0.3,16,0.3,16,0.8,14
2017/1/6 8:24,0.3,16,0.3,16,0.8,16
2017/1/6 8:25,0.4,16,0.4,16,3,15
2017/1/6 8:26,0.7,15,0.7,16,5.8,14
2017/1/6 8:27,1,15,1,16,6.2,14
2017/1/6 8:28,1.4,15,1.4,15,5.8,14
2017/1/6 8:29,1.7,15,1.7,15,4.9,14
2017/1/6 8:30,2,15,2,15,5.1,16
2017/1/6 8:31,2.1,15,2.1,15,4.4,1
2017/1/6 8:32,2.4,15,2.4,15,6.1,5
2017/1/6 8:33,2.7,15,2.7,15,6,6
2017/1/6 8:34,3,16,3,16,6.4,4
2017/1/6 8:35,3.1,1,3.1,16,5.8,3
2017/1/6 8:36,3,1,3.1,16,3.8,3
2017/1/6 8:37,2.9,2,2.9,16,4.9,3
2017/1/6 8:38,2.9,2,2.9,16,5.7,3
2017/1/6 8:39,2.9,3,2.9,16,4.1,3
2017/1/6 8:40,2.6,3,2.8,16,1.9,5
2017/1/6 8:41,2.4,3,2.6,16,1.4,14
2017/1/6 8:42,2.2,3,2.4,16,2.1,5
2017/1/6 8:43,2.1,3,2.2,16,2.6,6
2017/1/6 8:44,2,3,2.1,16,3.9,7
2017/1/6 8:45,2,3,2,1,4.3,7
2017/1/6 8:46,2,4,2,1,3.7,4
2017/1/6 8:47,2,4,2.1,2,4.5,4
2017/1/6 8:48,1.9,4,2,2,4.3,3
2017/1/6 8:49,2,4,2,3,6,5
2017/1/6 8:50,2.3,4,2.3,3,6.4,3
2017/1/6 8:51,2.5,4,2.5,4,3.7,4
2017/1/6 8:52,2.5,4,2.5,4,3.2,4
2017/1/6 8:53,2.6,4,2.6,4,3,2
2017/1/6 8:54,2.5,3,2.6,4,3,3
2017/1/6 8:55,2.4,3,2.5,4,1.8,2
2017/1/6 8:56,2.2,3,2.3,4,0.9,4
2017/1/6 8:57,2.1,3,2.2,4,2,1
2017/1/6 8:58,1.9,2,2.1,4,2.4,4
2017/1/6 8:59,2,2,2,4,6.8,4
2017/1/6 9:00,1.9,2,2,4,5.2,4
2017/1/6 9:01,1.8,3,1.9,4,3.7,3
2017/1/6 9:02,1.8,3,1.9,4,3.5,5
2017/1/6 9:03,1.6,3,1.8,4,0.5,6
2017/1/6 9:04,1.4,3,1.6,3,1.5,3
2017/1/6 9:05,1.5,4,1.5,3,2.5,4
2017/1/6 9:06,1.5,4,1.5,3,0.9,3
2017/1/6 9:07,1.4,4,1.5,2,0.6,5
2017/1/6 9:08,1.4,4,1.5,3,2.2,4
2017/1/6 9:09,1.3,4,1.4,2,5.5,3
2017/1/6 9:10,1.3,4,1.3,2,5.1,3
2017/1/6 9:11,1.5,4,1.5,3,5.2,3
2017/1/6 9:12,1.6,3,1.6,3,4.8,1
2017/1/6 9:13,1.9,3,1.9,3,5.4,15
2017/1/6 9:14,2,3,2,3,1.9,1
2017/1/6 9:15,1.9,2,2,3,1.9,3
2017/1/6 9:16,2,3,2,3,2.1,4
2017/1/6 9:17,2.1,3,2.1,3,3.7,5
2017/1/6 9:18,2.2,3,2.2,3,3.7,5
2017/1/6 9:19,2.3,3,2.3,3,5.7,3
2017/1/6 9:20,2.2,3,2.3,3,3.6,14
2017/1/6 9:21,2,3,2.1,3,5.1,14
2017/1/6 9:22,2.1,2,2.1,3,7,14
2017/1/6 9:23,2,2,2.1,3,4.8,14
2017/1/6 9:24,2,1,2,3,1.8,14
2017/1/6 9:25,2.1,16,2.1,3,1.5,14
2017/1/6 9:26,2.2,16,2.2,3,5.2,7
2017/1/6 9:27,2.3,16,2.3,3,3.8,4
2017/1/6 9:28,2.2,16,2.3,3,2.4,3
2017/1/6 9:29,1.9,16,2.1,3,1.6,2
2017/1/6 9:30,1.8,16,1.9,16,3,4
2017/1/6 9:31,1.7,3,1.8,16,1.4,5
2017/1/6 9:32,1.4,5,1.7,16,1.4,4
2017/1/6 9:33,1.2,5,1.4,16,1.4,4
2017/1/6 9:34,1.2,5,1.2,16,2.5,5
2017/1/6 9:35,1.2,5,1.2,16,1.9,3
2017/1/6 9:36,1.2,4,1.2,16,2.7,4
2017/1/6 9:37,1,4,1.1,16,2.1,5
2017/1/6 9:38,1,4,1,16,2.1,16
2017/1/6 9:39,1.3,4,1.3,16,5.5,1
2017/1/6 9:40,1.5,3,1.5,1,6.7,1
2017/1/6 9:41,1.6,3,1.6,3,4.1,10
2017/1/6 9:42,1.7,3,1.7,3,3.9,3
2017/1/6 9:43,1.9,3,1.9,3,3.5,2
2017/1/6 9:44,2.1,2,2.1,2,6.5,15
2017/1/6 9:45,2.4,2,2.4,2,7.9,15
2017/1/6 9:46,2.7,1,2.7,1,7.4,16
2017/1/6 9:47,3.1,1,3.1,1,9.2,16
2017/1/6 9:48,3.3,1,3.3,1,4.3,1
2017/1/6 9:49,3.2,1,3.3,1,3.9,1
2017/1/6 9:50,3,1,3.2,1,3.8,2
2017/1/6 9:51,3,1,3,1,3.9,2
2017/1/6 9:52,3.1,1,3.1,1,3.8,16
2017/1/6 9:53,3.1,1,3.2,1,3.7,16
2017/1/6 9:54,3,1,3.1,1,4.2,1
2017/1/6 9:55,2.9,1,3.1,1,4.2,2
2017/1/6 9:56,2.6,2,2.9,1,4.1,6
2017/1/6 9:57,2.4,2,2.6,1,3.8,5
2017/1/6 9:58,2.3,3,2.3,1,2.7,5
2017/1/6 9:59,2.3,3,2.3,1,2.4,4
2017/1/6 10:00,2.2,4,2.3,16,2.5,6
2017/1/6 10:01,2.1,4,2.2,16,2,9
2017/1/6 10:02,1.9,5,2.1,16,1.9,9
2017/1/6 10:03,1.9,6,1.9,1,2.1,8
2017/1/6 10:04,1.8,6,1.8,1,2.6,8
2017/1/6 10:05,1.6,7,1.7,1,3.1,8
2017/1/6 10:06,1.5,7,1.6,2,1.1,16
2017/1/6 10:07,1.4,7,1.4,2,4.3,16
2017/1/6 10:08,1.5,8,1.5,3,8.1,16
2017/1/6 10:09,1.6,9,1.6,3,6.2,16
2017/1/6 10:10,1.7,13,1.7,4,6.9,15
2017/1/6 10:11,1.8,15,1.8,4,8.6,16
2017/1/6 10:12,1.8,15,1.8,5,1,1
2017/1/6 10:13,1.8,16,1.8,6,2,2
2017/1/6 10:14,1.7,16,1.8,13,2.6,16
2017/1/6 10:15,1.7,16,1.7,13,4.8,15
2017/1/6 10:16,2.3,16,2.3,16,9.4,15
2017/1/6 10:17,2.6,16,2.6,16,6.9,15
2017/1/6 10:18,2.3,16,2.5,16,3.6,16
2017/1/6 10:19,2.1,16,2.3,16,2.5,14
2017/1/6 10:20,2.1,16,2.2,16,4.9,15
2017/1/6 10:21,2.3,15,2.3,16,4.9,16
2017/1/6 10:22,2.6,16,2.6,16,4.7,14
2017/1/6 10:23,2.8,16,2.8,16,6.4,1
2017/1/6 10:24,3.1,16,3.1,16,8.1,1
2017/1/6 10:25,3.3,16,3.4,16,5.8,3
2017/1/6 10:26,3,16,3.3,16,7.2,15
2017/1/6 10:27,2.9,16,3,16,4.7,1
2017/1/6 10:28,2.9,16,2.9,16,5,2
2017/1/6 10:29,3.2,16,3.2,16,7.6,16
2017/1/6 10:30,3.4,16,3.4,16,10.8,15
2017/1/6 10:31,3.4,16,3.4,16,8.2,15
2017/1/6 10:32,3.6,1,3.6,1,7.8,1
2017/1/6 10:33,3.9,1,3.9,1,10.2,16
2017/1/6 10:34,4,1,4,1,10,14
2017/1/6 10:35,4,16,4,1,7.9,1
2017/1/6 10:36,3.8,16,4,1,4.4,1
2017/1/6 10:37,3.9,16,3.9,1,6,15
2017/1/6 10:38,4,16,4,1,5.2,14
2017/1/6 10:39,4.1,16,4.1,16,6.2,15
2017/1/6 10:40,3.8,16,4.1,16,4.7,2
2017/1/6 10:41,4,16,4,16,9.1,16
2017/1/6 10:42,4.1,16,4.1,16,8.5,16
2017/1/6 10:43,4.1,16,4.1,16,10.1,16
2017/1/6 10:44,3.9,16,4.1,16,6.2,2
2017/1/6 10:45,3.9,16,3.9,16,5.4,2
2017/1/6 10:46,4,16,4,16,5.4,1
2017/1/6 10:47,3.9,16,4,16,2.9,15
2017/1/6 10:48,3.7,16,3.9,16,4.3,3
2017/1/6 10:49,3.6,16,3.7,16,8.4,16
2017/1/6 10:50,4.1,16,4.1,16,11.6,16
2017/1/6 10:51,3.8,16,4.1,16,10.2,16
2017/1/6 10:52,3.5,16,3.8,16,4.9,15
2017/1/6 10:53,3.3,16,3.5,16,6.7,15
2017/1/6 10:54,3.6,16,3.6,16,9.1,16
2017/1/6 10:55,3.8,16,3.8,16,10.9,1
2017/1/6 10:56,3.8,16,3.8,16,5,15
2017/1/6 10:57,4.1,16,4.1,16,8.4,16
2017/1/6 10:58,4.7,16,4.7,16,13,15
2017/1/6 10:59,5.1,16,5.2,16,12.7,16
2017/1/6 11:00,5,16,5.1,16,11.8,16
2017/1/6 11:01,5.2,16,5.2,16,10.7,1
2017/1/6 11:02,5.6,16,5.6,16,7.6,16
2017/1/6 11:03,5.6,16,5.6,16,6.8,1
2017/1/6 11:04,5.3,16,5.6,16,6.8,1
2017/1/6 11:05,5.2,16,5.3,16,8.4,1
2017/1/6 11:06,5.3,16,5.3,16,6.7,16
2017/1/6 11:07,5.4,1,5.4,16,6.7,16
2017/1/6 11:08,5,1,5.4,16,8.2,15
2017/1/6 11:09,4.7,1,4.9,16,7.8,2
2017/1/6 11:10,4.6,1,4.7,16,8.2,1
2017/1/6 11:11,4.2,1,4.6,16,7.2,1
2017/1/6 11:12,4.3,1,4.3,16,10,16
2017/1/6 11:13,4.3,16,4.3,16,8.6,15
2017/1/6 11:14,4.5,16,4.5,1,8.1,1
2017/1/6 11:15,4.4,16,4.5,1,8.7,2
2017/1/6 11:16,4.5,16,4.6,1,8.2,15
2017/1/6 11:17,4.6,16,4.6,1,8.5,1
2017/1/6 11:18,4.5,16,4.6,1,6.7,16
2017/1/6 11:19,4.6,16,4.6,1,6.8,16
2017/1/6 11:20,4.7,16,4.7,16,8.5,1
2017/1/6 11:21,4.9,16,4.9,16,8.7,16
2017/1/6 11:22,5,16,5.1,16,10,16
2017/1/6 11:23,5,16,5,16,7.7,16
2017/1/6 11:24,4.9,16,4.9,16,6.8,15
2017/1/6 11:25,4.8,16,4.9,16,4.9,16
2017/1/6 11:26,4.5,16,4.8,16,3.5,1
2017/1/6 11:27,4.1,16,4.4,16,2.5,4
2017/1/6 11:28,3.8,16,4,16,2,1
2017/1/6 11:29,3.7,16,3.8,16,5.5,2
2017/1/6 11:30,3.4,1,3.7,16,5,2
2017/1/6 11:31,3.1,1,3.4,16,4.7,1
2017/1/6 11:32,2.9,1,3,16,9.3,1
2017/1/6 11:33,2.8,1,3,16,8.4,16
2017/1/6 11:34,2.8,1,2.8,16,7.6,1
2017/1/6 11:35,2.9,1,2.9,16,7.6,15
2017/1/6 11:36,3.2,1,3.2,16,8.1,1
2017/1/6 11:37,3.5,1,3.5,16,8.4,16
2017/1/6 11:38,3.8,1,3.8,16,6.5,16
2017/1/6 11:39,3.8,1,3.9,1,7.6,15
2017/1/6 11:40,4,1,4,1,8.1,16
2017/1/6 11:41,4.3,1,4.3,1,9.8,16
2017/1/6 11:42,4.2,1,4.4,1,8.7,2
2017/1/6 11:43,4.3,1,4.3,1,8.2,15
2017/1/6 11:44,4.1,16,4.3,1,5.8,16
2017/1/6 11:45,4.1,1,4.2,1,7,3
2017/1/6 11:46,4.1,16,4.1,1,8.2,16